Weather History for Armstrong, ON

Change the Weather History Date:

Tuesday, March 18, 2014

  Actual Average Record
Temperature  
Mean Temperature 18 °F -  
Max Temperature 28 °F - - ()
Min Temperature 9 °F - - ()
Degree Days  
Heating Degree Days 46    
Moisture  
Dew Point 10 °F    
Average Humidity 71    
Maximum Humidity 90    
Minimum Humidity 33    
Precipitation  
Precipitation 0.01 in - - ()
Sea Level Pressure  
Sea Level Pressure 30.03 in    
Wind  
Wind Speed 3 mph ()    
Max Wind Speed 7 mph    
Max Gust Speed -    
T = Trace of Precipitation, MM = Missing Value Source: Averaged Metar Reports

Daily Weather History Graph

Daily Weather History Graph

Search for Another Location

Airport:

Trip Planner

Search our weather history database for the weather conditions in past years. The results will help you decide how hot, cold, wet, or windy it might be!

Date:

Astronomy

Mar. 18, 2014 Rise Set
Actual Time 8:02 AM EDT 8:05 PM EDT
Civil Twilight 7:30 AM EDT 8:37 PM EDT
Nautical Twilight 6:52 AM EDT 9:16 PM EDT
Astronomical Twilight 6:12 AM EDT 9:55 PM EDT
Moon 10:39 PM EDT (3/18) 8:38 AM EDT (3/18)
Length of Visible Light 13h 07m
Length of Day
12h 02m
Waning Gibbous, 96% of the Moon is Illuminated
Mar 18
Waning Gibbous
Mar 23
Last Quarter
Mar 30
New
Apr 7
First Quarter
Apr 15
Full

Hourly Weather History & Observations

Time (EDT) Temp. Windchill Dew Point Humidity Pressure Visibility Wind Dir Wind Speed Gust Speed Precip Events Conditions
12:00 AM 14.7 °F 7.3 °F 12.0 °F 89% 29.93 in - ESE 4.6 mph - 0.01 in   Unknown
1:00 AM 14.2 °F 6.7 °F 11.7 °F 90% 29.93 in - ESE 4.6 mph - 0.01 in   Unknown
2:00 AM 13 °F - 11 °F 86% 29.94 in - ESE 4.6 mph - -  
2:00 AM 13.5 °F 5.8 °F 10.8 °F 89% 29.94 in - ESE 4.6 mph - 0.00 in   Unknown
3:00 AM 13.1 °F 7.1 °F 10.4 °F 89% 29.95 in - East 3.5 mph - N/A   Unknown
4:00 AM 11.8 °F - 9.1 °F 89% 29.96 in - East 2.3 mph - N/A   Unknown
5:00 AM 11 °F - 9 °F 86% 29.97 in - ENE 1.2 mph - -  
5:00 AM 11.5 °F - 8.8 °F 89% 29.97 in - East 1.2 mph - N/A   Unknown
6:00 AM 12.0 °F 5.9 °F 9.1 °F 88% 29.99 in - ENE 3.5 mph - N/A   Unknown
7:00 AM 10.4 °F 2.2 °F 7.2 °F 87% 30.01 in - NE 4.6 mph - N/A   Unknown
8:00 AM 9 °F - 6 °F 82% 30.03 in - NE 2.3 mph - -  
8:00 AM 9.3 °F - 6.1 °F 87% 30.03 in - ENE 2.3 mph - N/A   Unknown
9:00 AM 9.7 °F - 6.4 °F 87% 30.05 in - NE 1.2 mph - N/A   Unknown
10:00 AM 12.9 °F - 8.2 °F 82% 30.05 in - East 2.3 mph - N/A   Unknown
11:00 AM 17 °F - 9 °F 59% 30.06 in - SE 4.6 mph - -  
11:00 AM 16.7 °F 8.3 °F 9.0 °F 72% 30.06 in - SE 5.8 mph - N/A   Unknown
12:00 PM 21.0 °F 16.2 °F 12.2 °F 69% 30.05 in - East 3.5 mph - N/A   Unknown
1:00 PM 22.3 °F 13.9 °F 11.8 °F 64% 30.07 in - ESE 6.9 mph - N/A   Unknown
2:00 PM 25 °F - 10 °F 40% 30.08 in - East 6.9 mph - -  
2:00 PM 24.8 °F 17.9 °F 10.4 °F 54% 30.08 in - East 5.8 mph - N/A   Unknown
3:00 PM 25.9 °F 19.2 °F 10.2 °F 52% 30.08 in - ESE 5.8 mph - N/A   Unknown
4:00 PM 28.0 °F 20.8 °F 9.9 °F 47% 30.08 in - East 6.9 mph - N/A   Unknown
5:00 PM 28 °F - 10 °F 33% 30.07 in - SSE 5.8 mph - -  
5:00 PM 28.0 °F - 10.2 °F 47% 30.07 in - SE 1.2 mph - N/A   Unknown
6:00 PM 27.1 °F 21.8 °F 11.7 °F 52% 30.07 in - SE 4.6 mph - N/A   Unknown
7:00 PM 25.2 °F 19.5 °F 11.7 °F 57% 30.07 in - South 4.6 mph - N/A   Unknown
8:00 PM 22 °F - 11 °F 50% 30.08 in - SSE 2.3 mph - -  
8:00 PM 21.6 °F - 11.1 °F 64% 30.08 in - SSE 2.3 mph - N/A   Unknown
9:00 PM 20.5 °F - 13.5 °F 74% 30.08 in - ESE 1.2 mph - N/A   Unknown
10:00 PM 21.2 °F - 13.8 °F 73% 30.08 in - South 1.2 mph - N/A   Unknown
11:00 PM 21 °F - 13 °F 62% 30.07 in - South 1.2 mph - -  
11:00 PM 20.8 °F - 13.5 °F 73% 30.07 in - South 1.2 mph - N/A   Unknown